GAOFEN-5 01

Last updated on Sun Jun 21 2026 00:02:52 GMT+0000 (Coordinated Universal Time)

1 43461U 18043A 26171.34997235 .00000232 00000+0 57864-4 0 9993 2 43461 98.4569 143.0025 0003017 78.1831 281.9707 14.60607261432157
UTC large
Height (km)
Speed (km/s)
/
Latitude / Longitude
Inclination (degrees)
Orbital Period (minutes)
Azimuth
Elevation
Range (km)
Doppler Factor

Next 0 passes for location: London (51.5072 / 0.1276)

No passes found over London.
GAOFEN-5 01